Regional Weather Roundup
Issued by NWS

Home | Current Version | Previous Version | Graphics & Text | Print | Product List | Glossary On
Versions: 1 2 3 4 5 6 7 8 9 10 11 12 13 14 15 16 17 18 19 20 21 22 23 24 25 26 27 28 29 30 31 32 33 34 35 36 37 38 39 40 41 42 43 44 45 46 47 48 49 50
000
ASUS43 KMKX 010611
RWRWI

WISCONSIN REGIONAL WEATHER ROUNDUP
NATIONAL WEATHER SERVICE MILWAUKEE/SULLIVAN WI
100 AM CDT WED JUN 01 2016

NOTE: "FAIR" INDICATES FEW OR NO CLOUDS BELOW 12,000 FEET WITH NO
SIGNIFICANT WEATHER AND/OR OBSTRUCTIONS TO VISIBILITY.

WIZ001-002-006>008-014>016-023>028-010700-
NORTHWEST WISCONSIN

CITY           SKY/WX    TMP DP  RH WIND       PRES   REMARKS
SUPERIOR ARPT  FOG       42  42 100 NE6       29.86F VSB 1
6HR MIN TEMP:  41; 6HR MAX TEMP:  43;

ASHLAND          N/A     48  47  96 CALM      29.84F FOG
6HR MIN TEMP:  47; 6HR MAX TEMP:  48; 6HR PCP:  0.15;

HAYWARD        CLOUDY    60  58  92 S8        29.86S
6HR MIN TEMP:  59; 6HR MAX TEMP:  65; 6HR PCP:  0.04;

SIREN          CLEAR     62  60  93 S7        29.83F
6HR MIN TEMP:  58; 6HR MAX TEMP:  69;

CUMBERLAND     CLOUDY    61  59  94 S8        29.86F
RICE LAKE      CLOUDY    62  60  92 S7        29.88S
6HR MIN TEMP:  61; 6HR MAX TEMP:  63; 6HR PCP:  0.34;

CHETEK         CLOUDY    62  61  98 SW6       29.87S
6HR MIN TEMP:  60; 6HR MAX TEMP:  62;

LADYSMITH      CLOUDY    62  60  95 S7        29.90S
6HR MIN TEMP:  60; 6HR MAX TEMP:  62; 6HR PCP:  0.12;

EAU CLAIRE     CLOUDY    62  60  93 S7        29.88S
6HR MIN TEMP:  61; 6HR MAX TEMP:  63; 6HR PCP:  0.01;

MENOMONIE      CLOUDY    63  63  99 S7        29.88S
6HR MIN TEMP:  63; 6HR MAX TEMP:  64;

NEW RICHMOND   CLEAR     60  60  99 S8        29.86S
6HR MIN TEMP:  60; 6HR MAX TEMP:  67;

OSCEOLA        CLEAR     61  61 100 S9        29.86F
6HR MIN TEMP:  61; 6HR MAX TEMP:  70;

$$

WIZ003>005-009-010-017-018-010700-
NORTH CENTRAL WISCONSIN

CITY           SKY/WX    TMP DP  RH WIND       PRES   REMARKS
MANITOWISH WTR CLOUDY    58  58 100 SE8       29.88F
6HR MIN TEMP:  58; 6HR MAX TEMP:  66; 6HR PCP:  0.23;

ARBOR VITAE    CLOUDY    60  58  94 S8        29.90S
6HR MIN TEMP:  59; 6HR MAX TEMP:  67; 6HR PCP:  0.08;

WOODRUFF       CLOUDY    60  58  94 S8        29.90S
6HR MIN TEMP:  59; 6HR MAX TEMP:  67; 6HR PCP:  0.08;

RHINELANDER    RAIN      60  58  92 S9        29.92S FOG
6HR MIN TEMP:  59; 6HR MAX TEMP:  65; 6HR PCP:  0.31;

EAGLE RIVER    LGT RAIN  57  56  97 S6        29.91S
6HR MIN TEMP:  57; 6HR MAX TEMP:  64;

LAND O LAKES   RAIN      57  55  94 S6        29.92S
6HR MIN TEMP:  57; 6HR MAX TEMP:  67; 6HR PCP:  0.03;

PHILLIPS       CLOUDY    60  60 100 S7        29.88S
6HR MIN TEMP:  59; 6HR MAX TEMP:  60; 6HR PCP:  0.48;

TOMAHAWK       RAIN      59  58  96 S3        29.91S
6HR MIN TEMP:  59; 6HR MAX TEMP:  63;

MEDFORD        DRIZZLE   60  60 100 S10       29.90S
6HR MIN TEMP:  60; 6HR MAX TEMP:  64; 6HR PCP:  0.48;

MERRILL        LGT RAIN  60  60 100 SE6       29.93S
$$

WIZ029-030-035-036-043>047-010700-
CENTRAL WISCONSIN

CITY           SKY/WX    TMP DP  RH WIND       PRES   REMARKS
WAUSAU         LGT RAIN  62  59  90 SE3       29.90F
6HR MIN TEMP:  62; 6HR MAX TEMP:  69; 6HR PCP:  0.31;

MOSINEE        LGT RAIN  59  59 100 SE6       29.93S
MARSHFIELD     CLOUDY    62  59  90 S8        29.91R
6HR MIN TEMP:  61; 6HR MAX TEMP:  69; 6HR PCP:  0.43;

STEVENS POINT  RAIN      60  59  99 SE5       29.93S
6HR MIN TEMP:  59; 6HR MAX TEMP:  67; 6HR PCP:  0.42;

WAUPACA        RAIN      65  64  97 S3        29.96R
6HR MIN TEMP:  65; 6HR MAX TEMP:  69; 6HR PCP:  0.01;

WAUTOMA        LGT RAIN N/A N/A N/A SE6       29.94F
WISC RAPIDS    LGT RAIN  61  59  93 SE7       29.93S
6HR MIN TEMP:  61; 6HR MAX TEMP:  70; 6HR PCP:  0.58;

CAMP DOUGLAS   LGT RAIN  62  62 100 S7        29.91S
6HR MIN TEMP:  62; 6HR MAX TEMP:  71; 6HR PCP:  0.68;

$$

WIZ011>013-019>022-031-037>040-048>050-010700-
NORTHEAST WISCONSIN

CITY           SKY/WX    TMP DP  RH WIND       PRES   REMARKS
ANTIGO         LGT RAIN  56  56 100 SE10      29.95S
6HR MIN TEMP:  56; 6HR MAX TEMP:  62; 6HR PCP:  0.07;

SHAWANO        DRIZZLE   61  55  82 SE5       29.95F
6HR MIN TEMP:  61; 6HR MAX TEMP:  66;

OCONTO         CLOUDY   N/A N/A N/A CALM      29.95R
                                      6HR PCP:  0.06;

STURGEON BAY   CLOUDY    58  50  75 SE7       29.95F
6HR MIN TEMP:  58; 6HR MAX TEMP:  61; 6HR PCP: TRACE;

GREEN BAY      CLOUDY    60  54  80 SW3       29.95S
6HR MIN TEMP:  59; 6HR MAX TEMP:  67;

MANITOWOC      LGT RAIN  59  51  75 SE5       29.95F
6HR MIN TEMP:  55; 6HR MAX TEMP:  60; 6HR PCP: TRACE;

APPLETON       DRIZZLE   59  54  82 S3        29.94S
CLINTONVILLE   CLOUDY    59  55  88 SE3       29.95R
OSHKOSH        LGT RAIN  62  58  86 SW5       29.96R
6HR MIN TEMP:  62; 6HR MAX TEMP:  66; 6HR PCP:  0.01;

$$

WIZ032>034-041-042-053>061-010700-
SOUTHWEST WISCONSIN

CITY           SKY/WX    TMP DP  RH WIND       PRES   REMARKS
LA CROSSE      CLOUDY    65  62  90 S5        29.90S
6HR MIN TEMP:  64; 6HR MAX TEMP:  65; 6HR PCP:  0.14;

SPARTA         CLOUDY    62  62  99 CALM      29.92R
6HR MIN TEMP:  61; 6HR MAX TEMP:  63; 6HR PCP:  0.70;

VIROQUA        CLOUDY    62  62 100 S6        29.93S
6HR MIN TEMP:  62; 6HR MAX TEMP:  63; 6HR PCP:  1.28;

BOSCOBEL       NOT AVBL
PRAIRIE DU CHI CLOUDY    63  62  96 CALM      29.92S
6HR MIN TEMP:  63; 6HR MAX TEMP:  69; 6HR PCP:  0.89;

PLATTEVILLE    CLOUDY    65  64  99 S7        29.95S
6HR MIN TEMP:  63; 6HR MAX TEMP:  71; 6HR PCP:  1.05;

$$

WIZ056-057-062-063-064-067-068-010700-
SOUTH CENTRAL WISCONSIN

CITY           SKY/WX    TMP DP  RH WIND       PRES   REMARKS
REEDSBURG      RAIN      62  62 100 CALM      29.93F
6HR MIN TEMP:  62; 6HR MAX TEMP:  69; 6HR PCP:  0.49;

BARABOO/DELLS  CLOUDY    63  60  93 SW6       29.94S
6HR MIN TEMP:  63; 6HR MAX TEMP:  69; 6HR PCP:  0.44;

LONE ROCK      RAIN      63  62  97 E3        29.94F FOG
6HR MIN TEMP:  63; 6HR MAX TEMP:  71; 6HR PCP:  0.72;

MINERAL POINT  RAIN      64  63  94 CALM      29.94F
MADISON        CLOUDY    65  61  87 CALM      29.94R
6HR MIN TEMP:  65; 6HR MAX TEMP:  70; 6HR PCP: TRACE;

MIDDLETON      CLOUDY    65  63  94 CALM      29.95S
6HR MIN TEMP:  65; 6HR MAX TEMP:  71; 6HR PCP:  0.01;

WATERTOWN      CLOUDY    64  63  98 SE5       29.93S
6HR MIN TEMP:  63; 6HR MAX TEMP:  66;

MONROE         CLOUDY    64  61  88 SW5       29.93S
JANESVILLE     CLOUDY    66  61  82 S7        29.92F
$$

WIZ051-052-058>065-066-070>072-010700-
SOUTHEAST WISCONSIN

CITY           SKY/WX    TMP DP  RH WIND       PRES   REMARKS
MILWAUKEE      CLOUDY    62  56  80 SE6       29.95F
6HR MIN TEMP:  60; 6HR MAX TEMP:  67; 6HR PCP: TRACE;

WAUKESHA       RAIN      61  59  94 SE3       29.97S
MILWAUKEE/TIMM CLOUDY    61  54  77 SE5       29.96F
RACINE         LGT RAIN  62  56  80 S9        29.98S
6HR MIN TEMP:  60; 6HR MAX TEMP:  68; 6HR PCP: TRACE;

BURLINGTON     CLOUDY    63  60  91 CALM      29.95S
6HR MIN TEMP:  62; 6HR MAX TEMP:  64;

KENOSHA        CLOUDY    62  58  86 SE9       29.96F
6HR MIN TEMP:  62; 6HR MAX TEMP:  67; 6HR PCP: TRACE;

FOND DU LAC    LGT RAIN  61  57  87 SE9       29.94F
6HR MIN TEMP:  61; 6HR MAX TEMP:  67; 6HR PCP: TRACE;

SHEBOYGAN      CLOUDY    57  53  86 CALM      29.95F
6HR MIN TEMP:  55; 6HR MAX TEMP:  58; 6HR PCP:  0.01;

WEST BEND      LGT RAIN  57  54  88 CALM      29.96S
JUNEAU         CLOUDY    63  60  92 SE3       29.95S
6HR MIN TEMP:  63; 6HR MAX TEMP:  65;

$$

LSZ147-162-010700-
LAKE SUPERIOR

STATION/POSITION TIME  TEMP    WIND        PRES    WAVE
                       AIR SEA DIR/SP/G            HT/PER
                 (UTC) (F)     (DEG/KT/KT) (MB)    (FT/S)
W MID LAKE BUOY  0550   45 38  110/ 10/ 12 1011.4F   3/ 5
DEVILS ISLAND    0600   41      40/  9/ 10 1011.4F
PORT WING        0500   41      30/  7/  8 1011.9F
SAXON HARBOR     0500   51      50/  2/  3 1010.8
$$

LMZ867-665-643>646-010700-
LAKE MICHIGAN

STATION/POSITION TIME  TEMP    WIND        PRES    WAVE
                       AIR SEA DIR/SP/G            HT/PER
                 (UTC) (F)     (DEG/KT/KT) (MB)    (FT/S)
CHAMBERS ISLAND  0500   62      50/  3/  5 1013.9F
N MIDC1F1C2F2C3F3C4F4C5F5C6F6C7F7C8M1C9M2Ca!


USA.gov is the U.S. government's official web portal to all federal, state and local government web resources and services.